Weather History for KNFW - September, 2013

Change the Weather History Date:

Thursday, September 19, 2013

  Actual Average Record
Temperature  
Mean Temperature 82 °F -  
Max Temperature 91 °F 84 °F 99 °F (2005)
Min Temperature 73 °F 66 °F 59 °F (2006)
Cooling Degree Days 17    
Growing Degree Days 32 (Base 50)    
Moisture  
Dew Point 66 °F    
Average Humidity 59    
Maximum Humidity 82    
Minimum Humidity 41    
Precipitation  
Precipitation 0.35 in - - ()
Sea Level Pressure  
Sea Level Pressure 29.94 in    
Wind  
Wind Speed 9 mph (SSE)    
Max Wind Speed 18 mph    
Max Gust Speed 32 mph    
Visibility 9 miles    
Events Rain , Thunderstorm    
Averages and records for this station are not official NWS values.
T = Trace of Precipitation, MM = Missing Value Source: NWS Daily Summary

Daily Weather History Graph

Daily Weather History Graph

Search for Another Location

Airport or City:

Trip Planner

Search our weather history database for the weather conditions in past years. The results will help you decide how hot, cold, wet, or windy it might be!

Date:

Astronomy

Sep. 19, 2013 Rise Set
Actual Time 7:16 AM CDT 7:30 PM CDT
Civil Twilight 6:51 AM CDT 7:54 PM CDT
Nautical Twilight 6:22 AM CDT 8:23 PM CDT
Astronomical Twilight 5:53 AM CDT 8:52 PM CDT
Moon 7:33 PM CDT (9/19) 7:23 AM CDT (9/19)
Length of Visible Light 13h 03m
Length of Day
12h 13m
Full, 100% of the Moon is Illuminated
Sep 19
Full
Sep 26
Last Quarter
Oct 4
New
Oct 11
First Quarter
Oct 18
Full

Hourly Weather History & Observations

Time (CDT) Temp. Heat Index Dew Point Humidity Pressure Visibility Wind Dir Wind Speed Gust Speed Precip Events Conditions
12:52 AM 86.0 °F 86.1 °F 61.0 °F 43% 29.92 in 10.0 mi SSE 12.7 mph - N/A   Clear
1:52 AM 86.0 °F 87.3 °F 64.0 °F 48% 29.92 in 10.0 mi SSE 12.7 mph - N/A   Partly Cloudy
2:52 AM 86.0 °F 87.6 °F 64.9 °F 49% 29.92 in 10.0 mi South 15.0 mph - N/A   Clear
3:52 AM 84.0 °F 86.3 °F 66.0 °F 55% 29.91 in 10.0 mi South 11.5 mph - N/A   Clear
4:52 AM 82.9 °F 85.0 °F 66.0 °F 56% 29.92 in 10.0 mi SSE 8.1 mph - N/A   Clear
5:52 AM 81.0 °F 83.0 °F 66.0 °F 60% 29.93 in 10.0 mi South 8.1 mph - N/A   Clear
6:52 AM 81.0 °F 83.0 °F 66.0 °F 60% 29.94 in 10.0 mi South 5.8 mph - N/A   Mostly Cloudy
7:52 AM 81.0 °F 83.0 °F 66.0 °F 60% 29.96 in 10.0 mi South 4.6 mph - N/A   Mostly Cloudy
8:52 AM 82.0 °F 84.5 °F 66.9 °F 60% 29.97 in 10.0 mi SSE 5.8 mph - N/A   Mostly Cloudy
9:52 AM 84.0 °F 86.5 °F 66.9 °F 56% 29.99 in 10.0 mi South 9.2 mph - N/A   Overcast
10:16 AM 84.2 °F 88.4 °F 69.8 °F 62% 30.04 in 10.0 mi South 10.4 mph - N/A   Mostly Cloudy
10:52 AM 86.0 °F 89.4 °F 68.0 °F 55% 29.99 in 10.0 mi South 9.2 mph - N/A   Overcast
11:52 AM 87.1 °F 90.6 °F 68.0 °F 53% 29.99 in 10.0 mi South 9.2 mph - N/A   Overcast
12:52 PM 87.1 °F 89.9 °F 66.9 °F 51% 29.98 in 10.0 mi SSE 5.8 mph - N/A   Overcast
1:52 PM 87.1 °F 89.2 °F 66.0 °F 49% 29.95 in 10.0 mi South 6.9 mph - N/A   Overcast
2:52 PM 88.0 °F 89.6 °F 64.9 °F 46% 29.93 in 10.0 mi Calm Calm - N/A   Overcast
3:52 PM 89.1 °F 91.0 °F 64.9 °F 45% 29.90 in 10.0 mi Calm Calm - N/A   Overcast
4:52 PM 91.0 °F 92.6 °F 64.0 °F 41% 29.87 in 10.0 mi NE 3.5 mph - N/A   Overcast
5:52 PM 89.1 °F 90.3 °F 64.0 °F 43% 29.88 in 10.0 mi North 4.6 mph - N/A   Overcast
6:52 PM 87.1 °F 89.2 °F 66.0 °F 49% 29.89 in 10.0 mi NNW 9.2 mph - N/A   Overcast
7:52 PM 84.9 °F 88.2 °F 68.0 °F 57% 29.89 in 10.0 mi NNW 6.9 mph - N/A   Overcast
8:26 PM 75.2 °F - 66.2 °F 73% 29.98 in 8.0 mi SSW 18.4 mph 32.2 mph 0.02 in Rain , Thunderstorm Light Thunderstorms and Rain
8:35 PM 73.4 °F - 66.2 °F 78% 29.99 in 2.0 mi South 18.4 mph - 0.15 in Rain Heavy Rain
8:49 PM 75.2 °F - 66.2 °F 73% 29.96 in 2.0 mi Variable 5.8 mph 21.9 mph 0.29 in Rain , Thunderstorm Light Thunderstorms and Rain
8:52 PM 75.0 °F - 66.9 °F 76% 29.92 in 10.0 mi West 5.8 mph - 0.29 in Rain , Thunderstorm Light Thunderstorms and Rain
9:24 PM 75.2 °F - 68.0 °F 78% 29.98 in 6.0 mi NE 6.9 mph - 0.04 in Rain , Thunderstorm Thunderstorms and Rain
9:52 PM 75.0 °F - 68.0 °F 79% 29.94 in 6.0 mi NE 6.9 mph - 0.04 in Rain Light Rain
10:52 PM 75.0 °F - 69.1 °F 82% 29.94 in 6.0 mi ENE 5.8 mph - 0.02 in Rain Light Rain
11:52 PM 75.0 °F - 69.1 °F 82% 29.93 in 10.0 mi ESE 4.6 mph - 0.00 in Rain Light Rain